AXM110 LEBL-LEPA

Flight info

Callsign AXM110
Flight time 0h 29m
Altitude 17000
Route LARPA2K LARPA N859 TOLSO TOLSO2P
Aircraft A333/H-V/N

Departure

Time 2026-05-05 13:10
Airport Josep Tarradellas Barcelona-El Prat Airport (LEBL)

Arrival

Time 2026-05-05 13:39
Airport Palma de Mallorca Airport (LEPA)
Time Latitude Longitude Altitude Speed Heading
2026-05-05 12:48 41.30088 2.07536 30 ft 0 kts 347°
2026-05-05 13:01 41.30054 2.07546 29 ft 1 kts 350°
2026-05-05 13:01 41.30044 2.07548 29 ft 1 kts 360°
2026-05-05 13:01 41.30035 2.07547 29 ft 1 kts 17°
2026-05-05 13:01 41.30027 2.07544 28 ft 1 kts 31°
2026-05-05 13:02 41.30020 2.07538 28 ft 1 kts 45°
2026-05-05 13:02 41.30015 2.07531 28 ft 1 kts 59°
2026-05-05 13:02 41.30012 2.07522 28 ft 1 kts 72°
2026-05-05 13:02 41.30010 2.07513 28 ft 0 kts 77°
2026-05-05 13:03 41.30009 2.07512 28 ft 0 kts 77°
2026-05-05 13:04 41.30010 2.07514 28 ft 0 kts 77°
2026-05-05 13:04 41.30012 2.07528 28 ft 2 kts 77°
2026-05-05 13:04 41.30016 2.07553 28 ft 4 kts 77°
2026-05-05 13:05 41.30022 2.07585 28 ft 6 kts 77°
2026-05-05 13:05 41.30018 2.07654 29 ft 9 kts 115°
2026-05-05 13:05 41.30002 2.07754 29 ft 13 kts 78°
2026-05-05 13:05 41.30041 2.07884 30 ft 16 kts 66°
2026-05-05 13:06 41.30095 2.08038 30 ft 20 kts 65°
2026-05-05 13:06 41.30158 2.08223 30 ft 23 kts 66°
2026-05-05 13:06 41.30217 2.08396 28 ft 25 kts 65°
2026-05-05 13:07 41.30238 2.08455 28 ft 26 kts 65°
2026-05-05 13:07 41.30300 2.08640 27 ft 21 kts 65°
2026-05-05 13:07 41.30366 2.08831 25 ft 24 kts 65°
2026-05-05 13:07 41.30478 2.08994 24 ft 25 kts 21°
2026-05-05 13:08 41.30655 2.09075 24 ft 27 kts 19°
2026-05-05 13:08 41.30802 2.09145 24 ft 19 kts 20°
2026-05-05 13:08 41.30925 2.09233 23 ft 20 kts 52°
2026-05-05 13:08 41.30946 2.09413 23 ft 21 kts 129°
2026-05-05 13:09 41.30810 2.09412 23 ft 21 kts 196°
2026-05-05 13:09 41.30651 2.09341 23 ft 36 kts 200°
2026-05-05 13:09 41.30172 2.09124 23 ft 106 kts 200°
2026-05-05 13:09 41.29277 2.08711 27 ft 164 kts 198°
2026-05-05 13:10 41.28148 2.08137 512 ft 176 kts 201°
2026-05-05 13:10 41.27047 2.07467 1280 ft 177 kts 205°
2026-05-05 13:10 41.25970 2.06700 2055 ft 178 kts 205°
2026-05-05 13:10 41.24809 2.06276 2600 ft 175 kts 192°
2026-05-05 13:11 41.23638 2.05885 3057 ft 177 kts 192°
2026-05-05 13:11 41.22408 2.05739 3528 ft 178 kts 176°
2026-05-05 13:11 41.21194 2.05509 3987 ft 177 kts 195°
2026-05-05 13:11 41.20023 2.04983 4386 ft 183 kts 200°
2026-05-05 13:12 41.18766 2.04447 4681 ft 195 kts 198°
2026-05-05 13:12 41.17427 2.03856 5007 ft 212 kts 202°
2026-05-05 13:12 41.16011 2.03048 5427 ft 228 kts 207°
2026-05-05 13:12 41.14527 2.02186 5909 ft 244 kts 202°
2026-05-05 13:13 41.12884 2.01348 6386 ft 260 kts 201°
2026-05-05 13:13 41.11177 2.00511 7083 ft 267 kts 201°
2026-05-05 13:13 41.09441 1.99670 7938 ft 268 kts 201°
2026-05-05 13:13 41.07646 1.99076 8730 ft 272 kts 184°
2026-05-05 13:14 41.05783 1.99585 9547 ft 280 kts 158°
2026-05-05 13:14 41.04145 2.00987 10280 ft 287 kts 150°
2026-05-05 13:14 41.02405 2.02458 10717 ft 303 kts 152°
2026-05-05 13:14 41.00583 2.03963 11067 ft 321 kts 152°
2026-05-05 13:15 40.98603 2.05588 11468 ft 339 kts 152°
2026-05-05 13:15 40.96581 2.07249 12182 ft 343 kts 153°
2026-05-05 13:15 40.94564 2.08901 12976 ft 345 kts 153°
2026-05-05 13:15 40.92529 2.10567 13709 ft 348 kts 153°
2026-05-05 13:16 40.90468 2.12250 14420 ft 352 kts 154°
2026-05-05 13:16 40.88351 2.13979 15027 ft 358 kts 154°
2026-05-05 13:16 40.86217 2.15721 15715 ft 362 kts 154°
2026-05-05 13:16 40.84094 2.17453 16355 ft 366 kts 154°
2026-05-05 13:17 40.81904 2.19237 16979 ft 369 kts 155°
2026-05-05 13:17 40.79694 2.21034 16829 ft 368 kts 154°
2026-05-05 13:17 40.77513 2.22810 16905 ft 363 kts 155°
2026-05-05 13:17 40.75352 2.24565 16924 ft 363 kts 155°
2026-05-05 13:18 40.73189 2.26322 16891 ft 363 kts 155°
2026-05-05 13:18 40.71017 2.28083 16912 ft 363 kts 154°
2026-05-05 13:18 40.68849 2.29845 16906 ft 362 kts 154°
2026-05-05 13:18 40.66728 2.31562 16909 ft 363 kts 154°
2026-05-05 13:19 40.64542 2.33334 16909 ft 363 kts 155°
2026-05-05 13:19 40.62357 2.34968 16899 ft 356 kts 163°
2026-05-05 13:19 40.60031 2.35872 16912 ft 351 kts 172°
2026-05-05 13:19 40.57655 2.36651 16910 ft 351 kts 172°
2026-05-05 13:20 40.55284 2.37457 16906 ft 351 kts 172°
2026-05-05 13:20 40.52914 2.38275 16911 ft 353 kts 171°
2026-05-05 13:20 40.50527 2.39103 16904 ft 353 kts 171°
2026-05-05 13:20 40.48183 2.39920 16906 ft 352 kts 171°
2026-05-05 13:21 40.45816 2.40744 16907 ft 352 kts 171°
2026-05-05 13:21 40.43423 2.41577 16911 ft 352 kts 171°
2026-05-05 13:21 40.41069 2.42395 16906 ft 352 kts 171°
2026-05-05 13:21 40.38677 2.43228 16900 ft 353 kts 171°
2026-05-05 13:22 40.36275 2.44061 16907 ft 352 kts 171°
2026-05-05 13:22 40.33884 2.44890 16905 ft 354 kts 171°
2026-05-05 13:22 40.31508 2.45716 16902 ft 353 kts 171°
2026-05-05 13:22 40.29151 2.46532 16906 ft 352 kts 171°
2026-05-05 13:23 40.26780 2.47352 16557 ft 359 kts 171°
2026-05-05 13:23 40.24352 2.48193 16028 ft 357 kts 171°
2026-05-05 13:23 40.21974 2.49110 15550 ft 356 kts 163°
2026-05-05 13:23 40.19890 2.50871 15067 ft 365 kts 142°
2026-05-05 13:24 40.18348 2.53525 14598 ft 372 kts 123°
2026-05-05 13:24 40.17126 2.56503 14135 ft 368 kts 123°
2026-05-05 13:24 40.15890 2.59387 13664 ft 364 kts 124°
2026-05-05 13:24 40.14640 2.62248 13192 ft 361 kts 124°
2026-05-05 13:25 40.13404 2.65061 12728 ft 358 kts 124°
2026-05-05 13:25 40.12188 2.67816 12657 ft 342 kts 124°
2026-05-05 13:25 40.11010 2.70485 12546 ft 329 kts 125°
2026-05-05 13:25 40.09886 2.73027 12435 ft 318 kts 125°
2026-05-05 13:26 40.08792 2.75488 12147 ft 313 kts 125°
2026-05-05 13:26 40.07695 2.77955 11749 ft 313 kts 125°
2026-05-05 13:26 40.06622 2.80374 11302 ft 299 kts 124°
2026-05-05 13:26 40.05601 2.82672 10987 ft 286 kts 124°
2026-05-05 13:27 40.04593 2.84935 10735 ft 284 kts 124°
2026-05-05 13:27 40.03591 2.87183 10422 ft 285 kts 124°
2026-05-05 13:27 40.02598 2.89412 10122 ft 284 kts 123°
2026-05-05 13:27 40.01619 2.91612 9875 ft 280 kts 124°
2026-05-05 13:28 40.00653 2.93779 9738 ft 273 kts 124°
2026-05-05 13:28 39.99701 2.95913 9445 ft 272 kts 124°
2026-05-05 13:28 39.98752 2.98039 9185 ft 270 kts 124°
2026-05-05 13:28 39.97809 3.00146 8935 ft 268 kts 123°
2026-05-05 13:29 39.96872 3.02241 8690 ft 266 kts 123°
2026-05-05 13:29 39.95956 3.04285 8459 ft 263 kts 123°
2026-05-05 13:29 39.95034 3.06345 8227 ft 261 kts 123°
2026-05-05 13:29 39.94128 3.08365 7998 ft 259 kts 123°
2026-05-05 13:30 39.93041 3.10187 7760 ft 253 kts 146°
2026-05-05 13:30 39.91478 3.11103 7545 ft 246 kts 174°
2026-05-05 13:30 39.89801 3.11062 7340 ft 242 kts 188°
2026-05-05 13:30 39.88111 3.10872 7103 ft 242 kts 188°
2026-05-05 13:31 39.86443 3.10673 6872 ft 241 kts 188°
2026-05-05 13:31 39.84777 3.10469 6643 ft 241 kts 188°
2026-05-05 13:31 39.83115 3.10264 6415 ft 240 kts 188°
2026-05-05 13:31 39.81446 3.10057 6188 ft 238 kts 188°
2026-05-05 13:32 39.79810 3.09854 5958 ft 238 kts 187°
2026-05-05 13:32 39.78160 3.09650 5731 ft 237 kts 187°
2026-05-05 13:32 39.76503 3.09445 5496 ft 237 kts 187°
2026-05-05 13:32 39.74868 3.09242 5258 ft 237 kts 187°
2026-05-05 13:33 39.73229 3.09041 5013 ft 236 kts 187°
2026-05-05 13:33 39.71603 3.08722 4740 ft 235 kts 201°
2026-05-05 13:33 39.70261 3.07532 4355 ft 241 kts 229°
2026-05-05 13:33 39.69370 3.05641 3859 ft 249 kts 239°
2026-05-05 13:34 39.68516 3.03747 3842 ft 237 kts 238°
2026-05-05 13:34 39.67682 3.01919 3641 ft 234 kts 238°
2026-05-05 13:34 39.66860 3.00121 3519 ft 229 kts 237°
2026-05-05 13:34 39.66040 2.98383 3428 ft 225 kts 237°
2026-05-05 13:35 39.65221 2.96645 3344 ft 224 kts 237°
2026-05-05 13:35 39.64411 2.94926 3174 ft 224 kts 237°
2026-05-05 13:35 39.63606 2.93219 2965 ft 223 kts 237°
2026-05-05 13:35 39.62808 2.91526 2638 ft 217 kts 238°
2026-05-05 13:36 39.62048 2.89917 2360 ft 199 kts 239°
2026-05-05 13:36 39.61354 2.88443 2160 ft 183 kts 239°
2026-05-05 13:36 39.60712 2.87086 2004 ft 169 kts 239°
2026-05-05 13:36 39.60126 2.85846 1750 ft 152 kts 240°
2026-05-05 13:37 39.59586 2.84699 1542 ft 147 kts 240°
2026-05-05 13:37 39.59059 2.83584 1345 ft 144 kts 240°
2026-05-05 13:37 39.58537 2.82483 1156 ft 142 kts 238°
2026-05-05 13:37 39.58018 2.81379 966 ft 141 kts 237°
2026-05-05 13:38 39.57501 2.80297 777 ft 141 kts 239°
2026-05-05 13:38 39.56999 2.79221 595 ft 141 kts 238°
2026-05-05 13:38 39.56490 2.78152 411 ft 141 kts 239°
2026-05-05 13:38 39.55970 2.77096 211 ft 138 kts 240°
2026-05-05 13:39 39.55471 2.76008 51 ft 140 kts 236°
2026-05-05 13:39 39.55019 2.75063 28 ft 100 kts 238°
2026-05-05 13:39 39.54749 2.74489 36 ft 48 kts 238°
2026-05-05 13:39 39.54613 2.74205 43 ft 33 kts 241°
2026-05-05 13:40 39.54550 2.73952 47 ft 27 kts 272°
2026-05-05 13:40 39.54562 2.73707 45 ft 26 kts 293°
2026-05-05 13:40 39.54697 2.73586 44 ft 19 kts 328°
2026-05-05 13:40 39.54787 2.73480 43 ft 14 kts 320°
2026-05-05 13:41 39.54829 2.73444 42 ft 0 kts 328°
2026-05-05 13:41 39.54834 2.73440 42 ft 0 kts 328°